Carbondale, IL

11:31 PM CST on December 14, 2019 (GMT -0600)
Southern Illinois

Weather History for KMDH - October, 2019

Change the Weather History Date:

Friday, October 11, 2019

  Actual Average Record
Temperature  
Mean Temperature 56 °F -  
Max Temperature 73 °F 69 °F 95 °F (1963)
Min Temperature 37 °F 42 °F 25 °F (1964)
Degree Days  
Heating Degree Days 9    
Growing Degree Days 6 (Base 50)    
Moisture  
Dew Point 55 °F    
Average Humidity 89    
Maximum Humidity 97    
Minimum Humidity 73    
Precipitation  
Precipitation 1.09 in - - ()
Sea Level Pressure  
Sea Level Pressure 30.00 in    
Wind  
Wind Speed 8 mph (WNW)    
Max Wind Speed 20 mph    
Max Gust Speed 30 mph    
Visibility 6 miles    
Events Rain , Thunderstorm    
Averages and records for this station are not official NWS values.
T = Trace of Precipitation, MM = Missing Value Source: NWS Daily Summary

Daily Weather History Graph

Daily Weather History Graph

Search for Another Location

Airport or City:

Astronomy

Oct. 11, 2019 Rise Set
Actual Time 7:01 AM CDT 6:25 PM CDT
Civil Twilight 6:35 AM CDT 6:51 PM CDT
Nautical Twilight 6:04 AM CDT 7:22 PM CDT
Astronomical Twilight 5:34 AM CDT 7:52 PM CDT
Moon 5:51 PM CDT (10/11) 4:45 AM CDT (10/11)
Length of Visible Light 12h 16m
Length of Day
11h 24m
Waxing Gibbous, 96% of the Moon is Illuminated
Oct 11
Waxing Gibbous
Oct 13
Full
Oct 21
Last Quarter
Oct 27
New
Nov 4
First Quarter

Hourly Weather History & Observations

Time (CDT) Temp. Windchill Dew Point Humidity Pressure Visibility Wind Dir Wind Speed Gust Speed Precip Events Conditions
12:52 AM 72.0 °F - 66.0 °F 81% 29.91 in 10.0 mi South 9.2 mph - 0.00 in   Mostly Cloudy
1:29 AM 73.0 °F - 66.0 °F 79% 29.91 in 10.0 mi South 10.4 mph - N/A Thunderstorm Overcast
1:39 AM 72.0 °F - 66.0 °F 81% 29.91 in 10.0 mi South 8.1 mph - 0.00 in Rain , Thunderstorm Light Thunderstorms and Rain
1:52 AM 70.0 °F - 66.0 °F 87% 29.90 in 2.5 mi SW 8.1 mph - 0.11 in Rain , Thunderstorm Thunderstorms and Rain
1:55 AM 70.0 °F - 66.0 °F 87% 29.91 in 3.0 mi SW 8.1 mph - 0.00 in Rain , Thunderstorm Light Rain
2:23 AM 70.0 °F - 66.9 °F 90% 29.91 in 10.0 mi West 4.6 mph - 0.01 in Rain Light Rain
2:37 AM 70.0 °F - 66.9 °F 90% 29.91 in 4.0 mi WNW 4.6 mph - 0.02 in Rain Light Rain
2:48 AM 69.8 °F - 66.2 °F 88% 29.91 in 6.0 mi Calm Calm - 0.03 in Rain Light Rain
2:52 AM 70.0 °F - 66.9 °F 90% 29.90 in 6.0 mi East 3.5 mph - 0.04 in Rain Light Rain
3:52 AM 69.1 °F - 66.0 °F 90% 29.88 in 10.0 mi SSE 4.6 mph - 0.01 in   Overcast
4:52 AM 68.0 °F - 66.0 °F 93% 29.88 in 6.0 mi North 3.5 mph - 0.01 in Rain Light Rain
5:43 AM 68.0 °F - 66.0 °F 93% 29.90 in 10.0 mi South 3.5 mph - 0.00 in Thunderstorm Overcast
5:52 AM 68.0 °F - 66.0 °F 93% 29.91 in 7.0 mi West 4.6 mph - 0.00 in Rain , Thunderstorm Light Rain
6:00 AM 68.0 °F - 66.0 °F 93% 29.93 in 2.5 mi WNW 6.9 mph - 0.07 in Rain , Thunderstorm Heavy Thunderstorms and Rain
6:04 AM 68.0 °F - 66.0 °F 93% 29.93 in 1.8 mi NW 10.4 mph - 0.14 in Rain , Thunderstorm Heavy Thunderstorms and Rain
6:22 AM 68.0 °F - 66.0 °F 93% 29.94 in 3.0 mi West 4.6 mph - 0.36 in Rain , Thunderstorm Light Thunderstorms and Rain
6:24 AM 68.0 °F - 66.0 °F 93% 29.94 in 4.0 mi NW 4.6 mph - 0.37 in Rain , Thunderstorm Light Thunderstorms and Rain
6:34 AM 66.9 °F - 64.9 °F 93% 29.94 in 2.5 mi NW 6.9 mph 17.3 mph 0.48 in Rain , Thunderstorm Heavy Rain
6:43 AM 66.0 °F - 64.0 °F 93% 29.94 in 3.0 mi North 5.8 mph - 0.52 in Rain Light Rain
6:50 AM 66.2 °F - 64.4 °F 94% 29.94 in 10.0 mi North 4.6 mph - 0.52 in Rain Light Rain
6:52 AM 66.0 °F - 64.0 °F 93% 29.93 in 10.0 mi NNW 4.6 mph - 0.52 in Rain Light Rain
7:32 AM 66.0 °F - 64.0 °F 93% 29.93 in 8.0 mi Calm Calm - 0.00 in Rain Light Rain
7:52 AM 66.0 °F - 64.0 °F 93% 29.93 in 10.0 mi Calm Calm - 0.00 in Rain Light Rain
8:52 AM 66.0 °F - 64.0 °F 93% 29.94 in 9.0 mi Calm Calm - 0.03 in Rain Light Rain
8:59 AM 66.0 °F - 64.0 °F 93% 29.96 in 8.0 mi Calm Calm - 0.00 in Rain Light Rain
9:08 AM 66.0 °F - 64.0 °F 93% 29.96 in 8.0 mi Calm Calm - 0.00 in Rain Light Rain
9:33 AM 66.0 °F - 63.0 °F 90% 29.99 in 0.8 mi WNW 13.8 mph - 0.07 in Rain Heavy Rain
9:50 AM 59.0 °F - 57.2 °F 94% 29.99 in 3.0 mi WNW 15.0 mph 20.7 mph 0.15 in Rain Rain
9:51 AM 59.0 °F - 57.0 °F 93% 29.99 in 3.0 mi WNW 13.8 mph 20.7 mph 0.15 in Rain Rain
10:39 AM 53.1 °F - 52.0 °F 96% 30.00 in 1.5 mi NNW 11.5 mph - 0.08 in Rain Heavy Rain
10:52 AM 52.0 °F - 51.1 °F 97% 30.00 in 1.5 mi NNW 13.8 mph 21.9 mph 0.14 in Rain Heavy Rain
11:13 AM 51.1 °F - 48.9 °F 92% 30.01 in 3.0 mi NNW 16.1 mph 25.3 mph 0.05 in Rain Light Rain
11:38 AM 50.0 °F - 48.0 °F 93% 30.04 in 10.0 mi NW 16.1 mph 24.2 mph 0.06 in Rain Light Rain
11:52 AM 50.0 °F - 48.0 °F 93% 30.04 in 7.0 mi NW 13.8 mph 23.0 mph 0.06 in Rain Light Rain
12:52 PM 48.9 °F - 46.0 °F 90% 30.04 in 10.0 mi WNW 12.7 mph 21.9 mph 0.00 in   Overcast
1:52 PM 48.0 °F - 45.0 °F 89% 30.04 in 5.0 mi NNW 6.9 mph - 0.00 in Rain Light Rain
2:21 PM 46.9 °F - 45.0 °F 93% 30.07 in 1.0 mi NW 12.7 mph 20.7 mph 0.01 in   Overcast
2:32 PM 46.9 °F - 45.0 °F 93% 30.07 in 1.0 mi WNW 11.5 mph - 0.01 in Rain Light Rain
2:37 PM 48.0 °F - 45.0 °F 89% 30.07 in 1.0 mi WNW 8.1 mph 18.4 mph 0.01 in Rain Light Rain
2:52 PM 46.9 °F - 44.1 °F 90% 30.08 in 1.0 mi WNW 19.6 mph 29.9 mph 0.02 in Rain Light Rain
2:56 PM 46.0 °F 39.0 °F 43.0 °F 89% 30.08 in 3.0 mi WNW 17.3 mph 29.9 mph 0.00 in Rain Light Rain
3:09 PM 45.0 °F 38.5 °F 43.0 °F 93% 30.08 in 6.0 mi NW 13.8 mph - 0.00 in Rain Light Rain
3:52 PM 46.0 °F 40.6 °F 43.0 °F 89% 30.10 in 10.0 mi NW 11.5 mph 18.4 mph 0.00 in   Overcast
4:52 PM 46.9 °F - 42.1 °F 83% 30.11 in 10.0 mi NW 9.2 mph - N/A   Overcast
5:52 PM 46.9 °F - 41.0 °F 80% 30.14 in 10.0 mi NW 9.2 mph - N/A   Overcast
6:36 PM 46.0 °F 41.9 °F 37.9 °F 73% 30.15 in 10.0 mi WNW 8.1 mph - N/A   Overcast
6:52 PM 45.0 °F 39.7 °F 37.0 °F 74% 30.16 in 10.0 mi WNW 10.4 mph - N/A   Scattered Clouds
7:52 PM 43.0 °F 39.5 °F 37.9 °F 82% 30.18 in 10.0 mi WNW 5.8 mph - N/A   Clear
8:52 PM 43.0 °F 39.5 °F 37.0 °F 80% 30.19 in 10.0 mi WNW 5.8 mph - N/A   Clear
9:52 PM 42.1 °F 38.4 °F 36.0 °F 79% 30.21 in 10.0 mi WNW 5.8 mph - N/A   Clear
10:52 PM 39.0 °F - 36.0 °F 89% 30.22 in 10.0 mi Calm Calm - N/A   Clear
11:52 PM 37.0 °F - 35.1 °F 93% 30.22 in 10.0 mi Calm Calm - N/A   Clear